Weather History for Kota Kinabalu, Malaysia

Change the Weather History Date:

Sunday, April 27, 2014

  Actual Average Record
Temperature  
Mean Temperature 86 °F -  
Max Temperature 95 °F 89 °F - ()
Min Temperature 78 °F 75 °F - ()
Cooling Degree Days 22    
Growing Degree Days 36 (Base 50)    
Moisture  
Dew Point 77 °F    
Average Humidity 77    
Maximum Humidity 89    
Minimum Humidity 57    
Precipitation  
Precipitation 0.00 in 0.28 in - ()
Sea Level Pressure  
Sea Level Pressure 29.79 in    
Wind  
Wind Speed 5 mph ()    
Max Wind Speed 8 mph    
Max Gust Speed -    
Visibility 6.8 miles    
Events      
T = Trace of Precipitation, MM = Missing Value Source: Averaged Metar Reports

Daily Weather History Graph

Daily Weather History Graph

Search for Another Location

Airport:

Trip Planner

Search our weather history database for the weather conditions in past years. The results will help you decide how hot, cold, wet, or windy it might be!

Date:

Astronomy

Apr. 27, 2014 Rise Set
Actual Time 6:04 AM MYT 6:22 PM MYT
Civil Twilight 5:42 AM MYT 6:44 PM MYT
Nautical Twilight 5:17 AM MYT 7:09 PM MYT
Astronomical Twilight 4:52 AM MYT 7:34 PM MYT
Moon 4:13 AM MYT (4/27) 4:42 PM MYT (4/27)
Length of Visible Light 13h 01m
Length of Day
12h 18m
Waning Crescent, 5% of the Moon is Illuminated
Apr 27
Waning Crescent
Apr 29
New
May 7
First Quarter
May 15
Full
May 21
Last Quarter

Hourly Weather History & Observations

Time (MYT) Temp. Heat Index Dew Point Humidity Pressure Visibility Wind Dir Wind Speed Gust Speed Precip Events Conditions
12:00 AM 80.6 °F 86.2 °F 75.2 °F 84% 29.80 in 6.2 mi ESE 5.8 mph - N/A   Mostly Cloudy
12:30 AM 78.8 °F - 75.2 °F 89% 29.80 in 6.2 mi ESE 4.6 mph - N/A   Mostly Cloudy
1:00 AM 78.8 °F - 75.2 °F 89% 29.80 in 6.2 mi ESE 4.6 mph - N/A   Mostly Cloudy
1:30 AM 80.6 °F 86.2 °F 75.2 °F 84% 29.80 in 6.2 mi ESE 4.6 mph - N/A   Mostly Cloudy
2:00 AM 80 °F - 75 °F 81% 29.80 in 9 mi ESE 6.9 mph - -   Haze
2:00 AM 78.8 °F - 75.2 °F 89% 29.80 in 6.2 mi ESE 6.9 mph - N/A   Mostly Cloudy
2:30 AM 78.8 °F - 75.2 °F 89% 29.80 in 6.2 mi ESE 5.8 mph - N/A   Mostly Cloudy
3:00 AM 78.8 °F - 75.2 °F 89% 29.77 in 6.2 mi East 5.8 mph - N/A   Mostly Cloudy
3:30 AM 78.8 °F - 75.2 °F 89% 29.77 in 6.2 mi ESE 8.1 mph - N/A   Mostly Cloudy
4:00 AM 78.8 °F - 75.2 °F 89% 29.77 in 6.2 mi ESE 5.8 mph - N/A   Mostly Cloudy
4:30 AM 78.8 °F - 75.2 °F 89% 29.80 in 6.2 mi ESE 5.8 mph - N/A   Mostly Cloudy
5:00 AM 79 °F - 75 °F 83% 29.81 in 9 mi East 5.8 mph - -   Haze
5:00 AM 78.8 °F - 75.2 °F 89% 29.80 in 6.2 mi East 5.8 mph - N/A   Mostly Cloudy
5:30 AM 78.8 °F - 75.2 °F 89% 29.80 in 6.2 mi ESE 5.8 mph - N/A   Mostly Cloudy
6:00 AM 78.8 °F - 75.2 °F 89% 29.83 in 6.2 mi ESE 6.9 mph - N/A   Mostly Cloudy
6:30 AM 78.8 °F - 75.2 °F 89% 29.83 in 6.2 mi ESE 4.6 mph - N/A   Mostly Cloudy
7:00 AM 80.6 °F 85.4 °F 73.4 °F 79% 29.83 in 6.2 mi East 6.9 mph - N/A   Mostly Cloudy
7:30 AM 82.4 °F 88.2 °F 73.4 °F 74% 29.83 in 6.2 mi ESE 6.9 mph - N/A   Mostly Cloudy
8:00 AM 85 °F - 75 °F 65% 29.85 in 12 mi ESE 5.8 mph - -   Haze
8:00 AM 84.2 °F 92.3 °F 75.2 °F 74% 29.83 in 6.2 mi ESE 5.8 mph - N/A   Mostly Cloudy
8:30 AM 86.0 °F 95.1 °F 75.2 °F 70% 29.86 in 6.2 mi SE 3.5 mph - N/A   Mostly Cloudy
9:00 AM 87.8 °F 102.5 °F 78.8 °F 75% 29.86 in 6.2 mi WSW 2.3 mph - N/A   Mostly Cloudy
9:30 AM 89.6 °F 104.7 °F 78.8 °F 70% 29.86 in 6.2 mi WSW 3.5 mph - N/A   Mostly Cloudy
10:00 AM 89.6 °F 104.7 °F 78.8 °F 70% 29.86 in 6.2 mi West 3.5 mph - N/A   Mostly Cloudy
10:30 AM 91.4 °F 111.0 °F 80.6 °F 71% 29.86 in 6.2 mi WNW 3.5 mph - N/A   Mostly Cloudy
11:00 AM 92 °F - 80 °F 61% 29.86 in 12 mi WNW 3.5 mph - -   Haze
11:00 AM 91.4 °F 111.0 °F 80.6 °F 71% 29.86 in 6.2 mi WNW 3.5 mph - N/A   Mostly Cloudy
11:30 AM 93.2 °F 113.6 °F 80.6 °F 67% 29.83 in 6.2 mi West 3.5 mph - N/A   Mostly Cloudy
12:00 PM 93.2 °F 113.6 °F 80.6 °F 67% 29.83 in 6.2 mi WNW 3.5 mph - N/A   Mostly Cloudy
12:30 PM 95.0 °F 115.8 °F 80.6 °F 63% 29.80 in 6.2 mi WNW 4.6 mph - N/A   Mostly Cloudy
1:00 PM 93.2 °F 110.2 °F 78.8 °F 63% 29.80 in 6.2 mi WNW 4.6 mph - N/A   Mostly Cloudy
1:30 PM 93.2 °F 110.2 °F 78.8 °F 63% 29.77 in 6.2 mi NW 4.6 mph - N/A   Mostly Cloudy
2:00 PM 94 °F - 80 °F 57% 29.76 in 12 mi NW 4.6 mph - -   Haze
2:00 PM 95.0 °F 115.8 °F 80.6 °F 63% 29.74 in 6.2 mi NW 4.6 mph - N/A   Mostly Cloudy
2:30 PM 91.4 °F 107.2 °F 78.8 °F 66% 29.74 in 6.2 mi NW 5.8 mph - N/A   Mostly Cloudy
3:00 PM 93.2 °F 113.6 °F 80.6 °F 67% 29.74 in 6.2 mi WNW 4.6 mph - N/A   Mostly Cloudy
3:30 PM 93.2 °F 113.6 °F 80.6 °F 67% 29.71 in 6.2 mi WNW 4.6 mph - N/A   Mostly Cloudy
4:00 PM 91.4 °F 111.0 °F 80.6 °F 71% 29.71 in 6.2 mi NNW 5.8 mph - N/A   Mostly Cloudy
4:30 PM 91.4 °F 111.0 °F 80.6 °F 71% 29.71 in 6.2 mi NW 4.6 mph - N/A   Mostly Cloudy
5:00 PM 90 °F - 80 °F 67% 29.73 in 12 mi NW 4.6 mph - -   Haze
5:00 PM 91.4 °F 111.0 °F 80.6 °F 71% 29.71 in 6.2 mi NW 4.6 mph - N/A   Mostly Cloudy
5:30 PM 89.6 °F 108.2 °F 80.6 °F 75% 29.71 in 6.2 mi NW 5.8 mph - N/A   Mostly Cloudy
6:00 PM 87.8 °F 102.5 °F 78.8 °F 75% 29.71 in 6.2 mi NNW 5.8 mph - N/A   Mostly Cloudy
6:30 PM 87.8 °F 102.5 °F 78.8 °F 75% 29.74 in 6.2 mi North 4.6 mph - N/A   Mostly Cloudy
7:00 PM 86.0 °F 96.9 °F 77.0 °F 74% 29.74 in 6.2 mi North 3.5 mph - N/A   Mostly Cloudy
7:30 PM 84.2 °F 94.1 °F 77.0 °F 79% 29.77 in 6.2 mi East 8.1 mph - N/A   Mostly Cloudy
8:00 PM 82 °F - 75 °F 75% 29.79 in 9 mi ESE 8.1 mph - -   Partly Cloudy
8:00 PM 82.4 °F 89.5 °F 75.2 °F 79% 29.77 in 6.2 mi ESE 8.1 mph - N/A   Mostly Cloudy
8:30 PM 82.4 °F 90.9 °F 77.0 °F 84% 29.80 in 6.2 mi ESE 4.6 mph - N/A   Mostly Cloudy
9:00 PM 82.4 °F 89.5 °F 75.2 °F 79% 29.80 in 6.2 mi ESE 6.9 mph - N/A   Mostly Cloudy
9:30 PM 80.6 °F 87.1 °F 77.0 °F 89% 29.80 in 6.2 mi ESE 5.8 mph - N/A   Mostly Cloudy
10:00 PM 80.6 °F 87.1 °F 77.0 °F 89% 29.83 in 6.2 mi East 5.8 mph - N/A   Mostly Cloudy
10:30 PM 80.6 °F 86.2 °F 75.2 °F 84% 29.83 in 6.2 mi ENE 4.6 mph - N/A   Mostly Cloudy
11:00 PM 81 °F - 76 °F 79% 29.82 in 9 mi East 4.6 mph - -   Partly Cloudy
11:00 PM 80.6 °F 86.2 °F 75.2 °F 84% 29.80 in 6.2 mi East 4.6 mph - N/A   Mostly Cloudy
11:30 PM 80.6 °F 86.2 °F 75.2 °F 84% 29.80 in 6.2 mi East 4.6 mph - N/A   Mostly Cloudy